CAPE
0 0 0 0 0 0 0 0 0 0 0 0 0 0 0 0 0 0 1 3 9 3 5 13 278 846 766 430 485 208 149 119
0 0 0 0 0 0 0 0 0 0 0 0 0 1 1 1 3 4 0 0 3 6 4 2 1 411 644 561 133 192 150 120
0 0 0 0 0 0 0 0 0 0 0 1 2 3 3 2 2 2 4 1 7 5 2 2 5 1 235 568 87 458 203 90
0 0 0 0 0 0 0 0 1 1 1 1 1 3 1 7 6 1 4 6 5 1 0 3 2 5 4 265 545 527 393 125
0 0 0 0 0 0 0 1 2 2 4 4 1 1 2 9 8 11 3 4 14 10 3 4 8 6 15 164 269 359 390 98
0 0 0 0 0 0 0 1 1 1 2 3 4 5 7 0 11 13 14 12 9 7 9 1 9 15 10 102 230 70 27 41
0 0 0 0 0 0 1 0 1 1 5 2 3 2 5 6 2 14 14 13 14 12 13 12 14 13 5 20 238 271 103 72
0 0 0 0 0 0 1 2 1 1 0 2 4 2 7 16 16 13 15 13 14 11 13 15 15 20 14 12 10 215 114 20
0 0 0 0 0 1 0 2 2 2 0 3 2 1 11 14 15 16 18 14 14 16 18 13 16 12 2 5 13 40 179 63
0 0 0 0 0 1 0 3 4 3 2 3 2 4 2 11 11 16 16 17 24 14 12 10 12 16 6 6 10 10 129 85
0 0 0 0 0 0 0 2 5 3 4 4 5 6 5 5 6 1 10 17 20 14 10 7 7 9 11 11 12 15 29 155
0 0 0 0 0 0 0 0 6 3 4 3 4 1 1 7 10 2 6 15 16 14 13 10 6 7 8 9 10 6 9 84
0 0 0 0 0 0 0 0 3 6 9 7 7 5 6 7 8 12 13 10 12 15 10 9 8 7 9 8 9 7 7 1
0 0 0 0 0 0 0 0 0 1 5 4 2 1 4 5 7 8 12 2 4 10 11 13 12 10 5 8 6 8 7 2
0 0 0 0 0 0 0 0 1 0 0 1 1 0 0 0 3 3 7 8 6 8 7 10 10 9 6 4 7 8 9 9
0 0 0 0 0 0 0 0 1 0 0 0 2 0 0 0 0 0 0 2 2 1 3 3 2 7 13 4 5 10 9 9
0 0 0 1 0 0 0 1 1 0 0 0 1 0 0 0 0 0 1 2 2 1 1 3 0 7 19 15 6 4 7 9
0 0 2 0 0 0 0 0 1 1 5 1 3 2 0 0 0 0 0 0 1 0 2 3 1 0 22 15 11 5 4 4
0 0 0 0 0 0 0 0 0 1 1 2 2 1 0 0 0 0 0 0 0 0 2 6 6 6 14 8 6 1 0 2
CIN
0 0 0 0 0 0 0 0 0 0 0 0 0 0 0 0 0 0 -2 -2 -1 -1 -0 -0 -9 -0 -10 -8 -4 -79 -129 -156
0 0 0 0 0 0 0 0 0 0 0 0 0 -0 -0 -0 -0 -1 0 0 -3 -1 -1 -1 -0 -0 -0 -5 -41 -9 -51 -157
0 0 0 0 0 0 0 0 0 -0 0 0 0 0 0 0 0 -0 -1 -0 -1 -0 -0 -0 -0 -0 -12 -2 -55 -0 -15 -127
0 0 0 0 0 0 0 0 0 0 0 0 0 -0 -0 0 0 -0 0 0 -3 -0 -0 -0 -1 -0 -0 -1 -0 -0 -2 -64
0 0 0 0 0 0 0 0 0 0 0 0 0 0 0 0 0 0 0 0 0 0 -0 0 0 -0 -0 -9 -9 -1 0 -70
0 0 0 0 0 0 0 0 0 0 0 0 0 0 0 -0 0 0 0 0 0 0 -0 -0 0 -0 -0 -12 -4 -42 -27 -42
0 0 0 0 0 0 -0 0 0 0 0 0 0 0 0 0 0 0 0 0 0 0 -0 -0 0 -0 -0 -0 -3 -13 -22 -27
0 0 0 0 0 -0 0 0 0 0 0 0 0 0 0 0 0 0 0 0 0 0 0 0 0 -0 0 0 0 -3 -61 -57
0 0 0 0 0 -0 -1 -0 0 0 0 0 0 0 0 0 0 0 0 0 0 0 0 0 0 0 0 0 0 -3 -24 -44
0 0 0 0 0 0 -0 -0 0 0 0 -0 -0 0 0 0 0 0 0 0 0 0 0 0 0 0 0 0 0 -0 -7 -54
0 0 0 0 0 0 0 -0 0 0 0 -0 -0 -0 0 0 0 0 0 0 0 0 0 0 0 0 0 0 0 0 -9 -8
0 0 0 0 0 0 0 0 0 -0 -0 -0 -0 -0 -0 0 0 0 0 0 0 0 0 0 0 0 0 0 0 0 0 -2
0 0 0 0 0 0 0 0 -0 0 -0 -0 -0 -0 0 0 0 0 0 0 0 0 0 0 0 0 0 0 0 0 0 0
0 0 0 0 0 0 0 0 -0 -0 -0 -0 -1 -1 -0 -0 0 0 0 0 0 0 0 0 0 0 0 0 0 0 0 0
0 -0 0 0 0 0 0 0 -0 -0 0 -0 -1 0 0 -0 -1 -1 -0 0 0 0 -0 0 0 0 0 0 0 0 0 0
0 0 0 0 0 0 0 -0 0 -1 0 -0 -0 -0 0 0 0 -1 -2 -1 -1 -1 -0 -0 -0 0 0 0 0 0 0 0
0 0 0 0 0 0 0 0 0 -0 0 0 -0 -0 0 0 0 0 -1 -1 -1 -2 -1 -0 -1 -0 0 0 0 0 0 0
0 0 0 0 0 0 0 -0 0 0 0 0 0 -0 0 0 0 0 0 -0 -1 -1 -1 -1 -1 -1 0 0 0 0 0 0
0 0 0 0 0 0 0 0 0 0 0 0 0 0 0 0 0 0 0 0 0 0 0 0 -0 -0 0 0 0 -0 -0 -0
Wind_Speed
11 11 11 11 10 12 13 12 15 14 10 10 8 9 9 10 10 9 13 12 15 14 12 13 14 11 15 12 11 9 10 10
7 8 8 9 10 12 13 15 16 13 13 14 12 13 12 10 10 14 16 13 14 15 12 13 13 12 11 12 15 12 10 9
11 10 8 8 10 12 14 15 16 13 12 12 11 12 10 12 13 14 14 16 16 15 16 13 14 12 15 14 17 15 12 11
12 11 10 11 15 16 15 15 15 13 15 11 11 10 11 8 12 13 14 16 16 18 17 15 14 12 11 12 13 15 13 12
10 12 14 15 13 11 12 15 15 13 15 13 17 12 14 11 12 12 15 18 17 17 17 15 15 12 14 12 10 13 11 6
10 13 13 12 13 12 14 15 16 16 17 14 11 13 12 14 12 17 16 13 16 17 15 17 16 11 14 13 10 11 11 11
7 9 11 12 11 13 14 16 16 17 15 15 15 16 17 15 16 13 12 12 12 16 16 16 17 15 15 13 11 13 10 13
7 9 10 11 12 15 13 14 15 17 17 15 15 15 16 17 16 13 16 12 12 15 18 16 14 15 16 15 15 11 11 13
6 7 7 8 10 12 13 14 15 16 18 16 14 14 9 11 13 13 11 12 13 17 16 16 16 15 15 16 13 12 12 12
6 6 7 8 9 11 11 13 13 14 15 13 14 12 15 13 15 14 11 13 13 16 16 18 16 15 17 15 12 14 13 12
5 5 7 7 7 8 8 11 12 14 14 13 13 13 13 14 13 17 16 14 15 15 17 17 18 18 17 17 13 15 15 11
2 4 5 6 6 8 10 10 11 12 12 14 14 15 15 14 12 15 16 16 16 16 15 15 17 19 19 16 16 16 17 15
2 5 5 6 7 7 8 9 11 12 11 12 14 15 15 15 15 16 16 16 16 17 17 18 18 18 19 18 18 16 15 13
4 6 6 7 6 6 7 9 13 11 11 12 13 13 13 15 15 16 16 18 19 18 19 18 18 18 20 21 18 17 16 10
1 7 5 6 6 6 8 9 12 11 11 13 14 13 12 12 13 13 14 15 16 17 17 17 18 19 20 21 21 18 14 13
3 4 5 5 7 7 8 10 12 11 13 13 14 13 11 12 13 13 13 14 14 16 18 19 19 20 17 20 21 21 20 15
5 5 7 9 8 8 9 12 13 11 13 13 14 14 13 14 14 14 14 15 16 16 19 20 21 16 35 32 23 18 19 19
5 5 7 6 7 8 9 9 10 11 12 13 14 13 15 16 15 16 17 17 16 17 17 18 18 20 36 31 28 14 16 18
6 5 4 5 5 7 8 9 10 11 12 13 13 14 14 15 16 16 16 15 16 15 17 18 17 18 33 31 26 14 13 16
Wind_Direction
5 7 3 358 355 358 357 356 357 352 349 346 343 338 337 332 327 320 321 318 319 318 307 304 286 226 226 191 210 209 207 210
359 5 357 355 2 3 3 358 360 358 359 352 350 343 335 329 327 326 327 316 313 316 306 305 309 275 232 248 218 240 218 200
1 359 356 359 3 10 8 3 1 360 357 346 341 332 331 328 332 322 320 319 315 317 310 304 305 302 279 224 208 211 209 194
355 349 352 2 13 7 4 359 358 358 356 344 341 329 333 330 331 328 320 318 316 314 307 301 295 293 285 258 224 225 209 191
357 354 3 7 6 0 360 1 355 358 352 348 350 342 334 327 323 320 320 318 313 315 305 298 293 292 282 274 236 228 222 216
9 0 358 358 358 358 359 358 358 359 356 350 343 335 334 330 326 322 316 314 311 309 313 313 303 299 295 282 237 220 220 225
25 355 358 353 354 359 357 358 358 357 354 349 345 345 337 331 332 324 322 322 320 319 319 313 303 304 304 299 265 224 208 213
19 2 357 351 355 1 0 354 355 355 357 350 346 348 334 323 327 325 328 329 328 320 321 314 304 309 307 305 299 248 215 209
27 7 351 346 351 356 355 352 354 355 358 351 346 344 334 325 327 327 328 329 324 329 329 332 329 322 313 307 290 275 232 209
41 8 352 347 350 343 347 350 354 354 354 351 348 347 342 335 332 332 334 330 334 335 339 337 340 334 322 303 293 281 250 218
38 3 350 344 339 327 342 349 356 349 351 352 348 348 344 339 340 343 342 338 341 342 343 346 346 343 339 329 318 291 268 244
25 345 341 329 310 339 345 346 351 351 355 354 351 354 350 347 349 346 347 348 349 348 348 350 355 348 346 340 330 315 296 254
28 4 343 332 336 340 338 344 352 350 348 355 357 353 353 352 353 355 351 351 352 351 350 353 359 1 353 353 340 327 310 283
11 11 356 331 333 332 339 349 0 348 352 2 357 356 354 353 352 354 350 357 359 356 355 356 357 0 3 358 351 343 334 350
3 19 351 336 328 336 350 353 1 351 359 5 360 358 352 351 352 355 350 353 0 359 354 355 4 3 8 9 359 359 358 348
52 35 338 336 346 344 348 358 1 357 5 5 2 356 354 356 357 357 355 359 4 1 358 4 5 11 8 14 12 7 8 3
42 36 9 5 348 352 357 4 1 360 8 6 1 359 357 1 360 360 1 3 7 11 7 6 7 12 13 13 24 12 10 13
85 44 15 353 352 355 359 351 353 9 8 6 3 357 359 1 1 1 5 6 5 14 9 12 10 13 16 14 17 21 16 8
84 56 19 348 350 3 0 4 8 11 13 10 5 2 5 3 3 4 2 2 7 8 9 10 11 14 19 18 13 20 21 16